When you browse on this site, cookies collect data to enhance your experience and personalize the content and advertising you see.
Visit our Privacy Policy to learn more. By continuing to use the site, you agree to this use of cookies and data.
  • In Hungary
  • List of Countries
  • For 7 days
  • Water Temperature
  • Satellite Maps
  • Weather Map
  • News
  • Weather Widgets
  • user-avatar
    Login

    Hourly Weather Tata

    Today, 18 January, Friday

    Time Temperature Precipitation Wind Pressure Humidity
    00:00 +4°C° 0.4 mm 4 mps 746 mmHg 86%
    01:00 +4°C° 0.4 mm 4 mps 746 mmHg 86%
    02:00 +3°C° 0.2 mm 4 mps 746 mmHg 85%
    03:00 +3°C° 0.2 mm 4 mps 746 mmHg 84%
    04:00 +3°C° 0.2 mm 3 mps 746 mmHg 83%
    05:00 +3°C° 0.2 mm 4 mps 747 mmHg 81%
    06:00 +1°C° 0.2 mm 4 mps 747 mmHg 79%
    07:00 +1°C° 0.2 mm 4 mps 748 mmHg 78%
    08:00 +1°C° 0.1 mm 4 mps 748 mmHg 77%
    09:00 +1°C° 0.1 mm 4 mps 749 mmHg 75%
    10:00 +1°C° 0.1 mm 4 mps 749 mmHg 74%
    11:00 +1°C° 0 mm 5 mps 750 mmHg 71%
    12:00 +1°C° 0 mm 5 mps 750 mmHg 68%
    13:00 +1°C° 0 mm 5 mps 750 mmHg 65%
    14:00 +1°C° 0 mm 5 mps 751 mmHg 66%
    15:00 +1°C° 0 mm 4 mps 751 mmHg 68%
    16:00 +2°C° 0 mm 3 mps 751 mmHg 69%
    17:00 +1°C° 0 mm 3 mps 752 mmHg 71%
    18:00 0°C° 0 mm 3 mps 752 mmHg 73%
    19:00 -1°C° 0 mm 3 mps 753 mmHg 74%
    20:00 -1°C° 0 mm 3 mps 753 mmHg 74%
    21:00 -1°C° 0 mm 2 mps 754 mmHg 74%
    22:00 -2°C° 0 mm 2 mps 754 mmHg 74%
    23:00 -2°C° 0 mm 2 mps 754 mmHg 75%

    Tomorrow, 19 January, Saturday

    Time Temperature Precipitation Wind Pressure Humidity
    00:00 -2°C° 0 mm 2 mps 754 mmHg 75%
    01:00 -2°C° 0 mm 2 mps 755 mmHg 75%
    02:00 0°C° 0 mm 1 mps 755 mmHg 76%
    03:00 -1°C° 0 mm 1 mps 755 mmHg 76%
    04:00 -1°C° 0 mm 1 mps 754 mmHg 77%
    05:00 -1°C° 0 mm 1 mps 755 mmHg 77%
    06:00 -1°C° 0 mm 1 mps 755 mmHg 77%
    07:00 -1°C° 0 mm 1 mps 755 mmHg 77%
    08:00 0°C° 0 mm 1 mps 755 mmHg 73%
    09:00 -1°C° 0 mm 2 mps 755 mmHg 70%
    10:00 0°C° 0 mm 3 mps 756 mmHg 66%
    11:00 0°C° 0 mm 3 mps 755 mmHg 63%
    12:00 +1°C° 0 mm 3 mps 755 mmHg 60%
    13:00 +1°C° 0 mm 3 mps 754 mmHg 57%
    14:00 +1°C° 0 mm 3 mps 754 mmHg 59%
    15:00 0°C° 0 mm 3 mps 753 mmHg 62%
    16:00 +1°C° 0 mm 2 mps 753 mmHg 64%
    17:00 -1°C° 0 mm 3 mps 753 mmHg 66%
    18:00 -1°C° 0 mm 3 mps 753 mmHg 67%
    19:00 -1°C° 0 mm 3 mps 753 mmHg 68%
    20:00 -1°C° 0 mm 3 mps 753 mmHg 68%
    21:00 -1°C° 0 mm 3 mps 753 mmHg 68%
    22:00 -1°C° 0 mm 3 mps 753 mmHg 68%
    23:00 -1°C° 0.1 mm 3 mps 752 mmHg 72%

    Day after tomorrow, 20 January, Sunday

    Time Temperature Precipitation Wind Pressure Humidity
    00:00 -2°C° 0.1 mm 3 mps 752 mmHg 76%
    01:00 -2°C° 0.1 mm 3 mps 752 mmHg 80%
    02:00 -2°C° 0.1 mm 3 mps 751 mmHg 81%
    03:00 -2°C° 0.1 mm 2 mps 751 mmHg 82%
    04:00 -2°C° 0.1 mm 2 mps 750 mmHg 83%
    05:00 -2°C° 0 mm 2 mps 750 mmHg 84%
    06:00 -2°C° 0 mm 2 mps 750 mmHg 85%
    07:00 0°C° 0 mm 1 mps 750 mmHg 86%
    08:00 0°C° 0.1 mm 1 mps 750 mmHg 85%
    09:00 +1°C° 0.1 mm 1 mps 751 mmHg 84%
    10:00 +1°C° 0.1 mm 1 mps 751 mmHg 83%
    11:00 +1°C° 0 mm 1 mps 751 mmHg 82%
    12:00 +2°C° 0 mm 1 mps 750 mmHg 80%
    13:00 +1°C° 0 mm 0 mps 750 mmHg 79%
    14:00 +2°C° 0 mm 1 mps 750 mmHg 80%
    15:00 +2°C° 0 mm 1 mps 750 mmHg 81%
    16:00 +2°C° 0 mm 1 mps 750 mmHg 82%
    17:00 +1°C° 0 mm 1 mps 751 mmHg 83%
    18:00 +1°C° 0 mm 1 mps 751 mmHg 84%
    19:00 +1°C° 0 mm 1 mps 751 mmHg 85%
    20:00 -2°C° 0 mm 2 mps 752 mmHg 86%
    21:00 -2°C° 0 mm 2 mps 752 mmHg 87%
    22:00 -3°C° 0 mm 2 mps 752 mmHg 88%
    23:00 -3°C° 0 mm 2 mps 753 mmHg 88%

    21 January, Monday

    Time Temperature Precipitation Wind Pressure Humidity
    00:00 -3°C° 0 mm 2 mps 753 mmHg 88%
    01:00 -3°C° 0 mm 2 mps 753 mmHg 88%
    02:00 -3°C° 0 mm 2 mps 753 mmHg 88%
    03:00 -3°C° 0 mm 2 mps 753 mmHg 88%
    04:00 -4°C° 0 mm 2 mps 754 mmHg 88%
    05:00 -4°C° 0 mm 2 mps 754 mmHg 86%
    06:00 -2°C° 0 mm 1 mps 754 mmHg 85%
    07:00 -2°C° 0 mm 1 mps 755 mmHg 84%
    08:00 -1°C° 0 mm 1 mps 755 mmHg 78%
    09:00 0°C° 0 mm 1 mps 755 mmHg 72%
    10:00 0°C° 0 mm 1 mps 756 mmHg 66%
    11:00 +1°C° 0 mm 1 mps 756 mmHg 64%
    12:00 +2°C° 0 mm 1 mps 756 mmHg 62%
    13:00 +2°C° 0 mm 1 mps 756 mmHg 60%
    14:00 +2°C° 0 mm 1 mps 756 mmHg 65%
    15:00 +2°C° 0 mm 1 mps 755 mmHg 70%
    16:00 +1°C° 0 mm 1 mps 755 mmHg 74%
    17:00 +1°C° 0 mm 1 mps 756 mmHg 78%
    18:00 0°C° 0 mm 1 mps 756 mmHg 81%
    19:00 0°C° 0 mm 1 mps 756 mmHg 85%
    20:00 -1°C° 0 mm 1 mps 756 mmHg 86%
    21:00 -1°C° 0 mm 1 mps 756 mmHg 86%
    22:00 -1°C° 0 mm 1 mps 756 mmHg 87%
    23:00 -1°C° 0 mm 1 mps 756 mmHg 87%

    22 January, Tuesday

    Time Temperature Precipitation Wind Pressure Humidity
    00:00 -1°C° 0 mm 1 mps 755 mmHg 86%
    01:00 -1°C° 0 mm 1 mps 755 mmHg 85%
    02:00 -1°C° 0 mm 1 mps 755 mmHg 84%
    03:00 -2°C° 0 mm 1 mps 754 mmHg 82%
    04:00 -2°C° 0 mm 1 mps 754 mmHg 81%
    05:00 -2°C° 0 mm 1 mps 754 mmHg 79%
    06:00 -4°C° 0 mm 2 mps 753 mmHg 78%
    07:00 -4°C° 0 mm 2 mps 753 mmHg 76%
    08:00 -4°C° 0 mm 2 mps 753 mmHg 73%
    09:00 -3°C° 0 mm 2 mps 753 mmHg 70%
    10:00 -2°C° 0 mm 3 mps 752 mmHg 67%
    11:00 -2°C° 0 mm 3 mps 752 mmHg 65%
    12:00 -1°C° 0 mm 3 mps 751 mmHg 64%
    13:00 -1°C° 0 mm 3 mps 750 mmHg 63%
    14:00 -1°C° 0 mm 3 mps 749 mmHg 66%
    15:00 -2°C° 0 mm 3 mps 749 mmHg 69%
    16:00 -2°C° 0 mm 3 mps 748 mmHg 72%
    17:00 -2°C° 0 mm 3 mps 748 mmHg 75%
    18:00 -4°C° 0 mm 3 mps 747 mmHg 77%
    19:00 -4°C° 0 mm 3 mps 747 mmHg 80%
    20:00 -4°C° 0 mm 3 mps 747 mmHg 78%
    21:00 -4°C° 0 mm 3 mps 746 mmHg 76%
    22:00 -4°C° 0 mm 3 mps 746 mmHg 74%
    23:00 -4°C° 0 mm 3 mps 745 mmHg 72%

    23 January, Wednesday

    Time Temperature Precipitation Wind Pressure Humidity
    00:00 -2°C° 0 mm 3 mps 745 mmHg 71%
    01:00 -2°C° 0 mm 3 mps 744 mmHg 69%
    02:00 -2°C° 0 mm 3 mps 744 mmHg 71%
    03:00 -2°C° 0 mm 3 mps 743 mmHg 72%
    04:00 -2°C° 0 mm 3 mps 743 mmHg 74%
    05:00 -3°C° 0 mm 4 mps 742 mmHg 75%
    06:00 -3°C° 0 mm 4 mps 742 mmHg 76%
    07:00 -3°C° 0 mm 4 mps 742 mmHg 77%
    08:00 -3°C° 0.1 mm 4 mps 742 mmHg 77%
    09:00 -3°C° 0.1 mm 4 mps 742 mmHg 78%
    10:00 -3°C° 0.1 mm 4 mps 742 mmHg 79%
    11:00 -1°C° 0.1 mm 3 mps 741 mmHg 80%
    12:00 -1°C° 0.1 mm 3 mps 741 mmHg 80%
    13:00 -1°C° 0.1 mm 3 mps 741 mmHg 81%
    14:00 -1°C° 0 mm 3 mps 741 mmHg 82%
    15:00 -1°C° 0 mm 2 mps 741 mmHg 84%
    16:00 -1°C° 0 mm 2 mps 741 mmHg 85%
    17:00 -1°C° 0 mm 2 mps 741 mmHg 87%
    18:00 -1°C° 0 mm 2 mps 741 mmHg 88%
    19:00 -1°C° 0 mm 2 mps 741 mmHg 89%
    20:00 -1°C° 0 mm 2 mps 741 mmHg 90%
    21:00 -1°C° 0 mm 2 mps 741 mmHg 92%
    22:00 -1°C° 0 mm 2 mps 741 mmHg 93%
    23:00 -1°C° 0.3 mm 2 mps 741 mmHg 94%
    Show more